www.pogodaiklimat.ru

Погода и климат >> Архив погоды >> Норвегия >> Лардал


ПОГОДА в Лардале

  • Прогноз погоды в Лардале
  • Монитор погоды в Лардале

АРХИВ ПОГОДЫ в Лардале

Время (UTC), дата Ветер
(напр.,м/с)
 
Видим.   Явления Облачность Т
(С)
Тd
(С)
f
(%)
Тe
(С)
Тes
(С)
Комфортность P
(гПа)
Po
(гПа)
Тmin
(С)
Tmax
(С)
R
(мм)
R24
(мм)
S
(см)
07 9.09 н/о н/о +6.8 +5.4 91 1019.7 1019.2
08 9.09 н/о н/о +9.2 +7.5 89 1019.6 1019.1
09 9.09 н/о н/о +12.1 +8.4 78 1019.3 1018.8 0.1
10 9.09 н/о н/о +13.0 +7.3 68 1018.9 1018.4
11 9.09 н/о н/о +13.0 +6.8 66 1018.3 1017.8
12 9.09 н/о н/о +14.1 +8.1 67 1018.1 1017.6
13 9.09 н/о н/о +16.1 +8.8 62 1017.4 1016.9 0.1
14 9.09 н/о н/о +16.3 +9.3 63 1017.2 1016.7
15 9.09 н/о н/о +16.5 +10.6 68 1017.0 1016.5 0.1
16 9.09 н/о н/о +15.6 +9.3 66 1016.9 1016.4
17 9.09 н/о н/о +13.6 +8.7 72 1017.0 1016.5
18 9.09 н/о н/о +13.0 +9.6 80 1017.0 1016.5 +6.7 +17.0 0.1
19 9.09 н/о н/о +11.7 +9.1 84 1017.2 1016.7
20 9.09 н/о н/о +11.4 +8.8 84 1017.1 1016.6
21 9.09 н/о н/о +10.8 +8.6 86 1017.0 1016.5 0.1
22 9.09 н/о н/о +9.7 +8.0 89 1017.0 1016.5
23 9.09 н/о н/о +10.2 +8.1 87 1016.9 1016.4
00 10.09 н/о н/о +10.5 +8.3 86 1016.8 1016.3
01 10.09 н/о н/о +11.1 +8.2 82 1016.6 1016.1 0.1
02 10.09 н/о н/о +10.7 +8.5 86 1016.5 1016.0
03 10.09 н/о н/о +10.6 +8.7 88 1015.8 1015.3 0.1
04 10.09 н/о н/о +10.5 +8.9 90 1015.9 1015.4
05 10.09 н/о н/о +10.5 +9.1 91 1015.8 1015.3
06 10.09 н/о н/о +10.6 +9.2 91 1015.9 1015.4 +9.7 +13.0 0.4
07 10.09 н/о н/о +10.7 +9.3 91 1015.9 1015.4
08 10.09 н/о н/о +11.6 +10.2 91 1015.8 1015.3 0.1
09 10.09 н/о н/о +12.7 +9.9 83 1015.6 1015.1
10 10.09 н/о н/о +13.5 +9.9 79 1015.1 1014.6
11 10.09 н/о н/о +13.9 +10.3 79 1014.7 1014.2 0.1
12 10.09 н/о н/о +14.0 +9.7 75 1014.3 1013.8
13 10.09 н/о н/о +13.6 +9.8 78 1013.9 1013.4 0.1
14 10.09 н/о н/о +14.7 +9.9 73 1013.3 1012.8
15 10.09 н/о н/о +13.7 +9.6 76 1012.7 1012.2 0.1
16 10.09 н/о н/о +13.8 +9.5 75 1012.1 1011.6
17 10.09 н/о н/о +12.9 +9.4 79 1011.7 1011.2
18 10.09 н/о н/о +12.2 +9.6 84 1011.7 1011.2 +10.6 +15.2 0.4
19 10.09 н/о н/о +12.0 +9.7 86 1010.2 1009.7 0.1
20 10.09 н/о н/о +12.5 +9.9 84 1010.3 1009.8
21 10.09 н/о н/о +11.9 +9.8 87 1009.4 1008.9
22 10.09 н/о н/о +11.7 +10.0 89 1009.0 1008.5 0.1
23 10.09 н/о н/о +11.7 +10.0 89 1008.2 1007.7
00 11.09 н/о н/о +11.6 +9.9 89 1007.5 1007.0
01 11.09 н/о н/о +11.5 +9.9 90 1007.0 1006.5 0.1
02 11.09 н/о н/о +11.5 +9.9 90 1005.9 1005.4
03 11.09 н/о н/о +11.5 +10.1 91 1004.7 1004.2
04 11.09 н/о н/о +11.2 +9.6 90 1003.9 1003.4 0.1
05 11.09 н/о н/о +11.1 +9.5 90 1003.1 1002.6
06 11.09 н/о н/о +11.0 +9.6 91 1002.4 1001.9 +10.9 +12.5 0.4
07 11.09 н/о н/о +11.2 +9.6 90 1002.0 1001.5 0.1
08 11.09 н/о н/о +12.1 +9.8 86 1002.3 1001.8
09 11.09 н/о н/о +12.3 +9.9 85 1002.1 1001.6
10 11.09 н/о н/о +12.8 +9.3 79 1001.4 1000.9 0.1
11 11.09 н/о н/о +12.3 +9.5 83 1001.1 1000.6
12 11.09 н/о н/о +13.0 +10.2 83 1000.8 1000.3 0.1
13 11.09 н/о н/о +12.9 +9.5 80 1000.8 1000.3
14 11.09 н/о н/о +13.7 +9.6 76 1000.5 1000.0
15 11.09 н/о н/о +14.1 +9.5 74 1000.5 1000.0 0.1
16 11.09 н/о н/о +13.8 +9.3 74 1001.3 1000.8
17 11.09 н/о н/о +12.7 +9.5 81 1001.8 1001.3 0.1
18 11.09 н/о н/о +12.0 +9.9 87 1002.6 1002.1 +10.9 +14.7
19 11.09 н/о н/о +12.2 +9.9 86 1003.8 1003.3
20 11.09 н/о н/о +11.2 +9.6 90 1004.4 1003.9 0.1
21 11.09 н/о н/о +11.3 +9.9 91 1004.9 1004.4
22 11.09 н/о н/о +11.0 +9.6 91 1005.6 1005.1 0.1
23 11.09 н/о н/о +10.5 +9.3 92 1006.0 1005.5
00 12.09 н/о н/о +10.1 +8.9 92 1006.1 1005.6
01 12.09 н/о н/о +10.1 +9.0 93 1006.8 1006.3 0.1
02 12.09 н/о н/о +10.4 +9.3 93 1007.1 1006.6
03 12.09 н/о н/о +10.4 +9.2 92 1007.4 1006.9
04 12.09 н/о н/о +10.5 +9.1 91 1007.7 1007.2 0.1
05 12.09 н/о н/о +10.5 +9.1 91 1008.2 1007.7
06 12.09 н/о н/о +10.8 +9.4 91 1008.2 1007.7 +9.9 +12.5 0.4
07 12.09 н/о н/о +12.0 +9.7 86 1008.6 1008.1 0.1
08 12.09 н/о н/о +12.4 +9.4 82 1008.9 1008.4
09 12.09 н/о н/о +14.3 +9.9 75 1009.2 1008.7
10 12.09 н/о н/о +14.0 +10.0 77 1009.8 1009.3 0.1
11 12.09 н/о н/о +14.1 +9.1 72 1010.6 1010.1
12 12.09 н/о н/о +13.7 +9.0 73 1010.7 1010.2 0.1
13 12.09 н/о н/о +14.3 +9.1 71 1010.8 1010.3
14 12.09 н/о н/о +12.5 +9.5 82 1011.2 1010.7 0.1
15 12.09 н/о н/о +11.5 +9.4 87 1011.5 1011.0
16 12.09 н/о н/о +11.1 +9.0 87 1011.9 1011.4
17 12.09 н/о н/о +10.8 +9.2 90 1011.6 1011.1 0.1
18 12.09 н/о н/о +10.2 +8.8 91 1011.6 1011.1 +10.2 +16.9
19 12.09 н/о н/о +10.0 +8.8 92 1011.9 1011.4
20 12.09 н/о н/о +9.9 +8.7 92 1012.2 1011.7 0.1
21 12.09 н/о н/о +9.8 +8.7 93 1012.6 1012.1
22 12.09 н/о н/о +9.2 +7.8 91 1013.6 1013.1
23 12.09 н/о н/о +8.5 +7.0 90 1014.2 1013.7
00 13.09 н/о н/о +8.3 +7.1 92 1014.6 1014.1
01 13.09 н/о н/о +8.3 +7.1 92 1015.6 1015.1 0.1
02 13.09 н/о н/о +8.1 +7.0 93 1015.4 1014.9
03 13.09 н/о н/о +8.1 +7.0 93 1015.9 1015.4
04 13.09 н/о н/о +8.1 +7.0 93 1016.4 1015.9
05 13.09 н/о н/о +7.9 +6.8 93 1017.0 1016.5
06 13.09 н/о н/о +8.0 +6.9 93 1017.6 1017.1 +7.7 +10.2 0.2
07 13.09 н/о н/о +8.4 +7.3 93 1017.8 1017.3
08 13.09 н/о н/о +9.0 +7.8 92 1018.3 1017.8 0.1
09 13.09 н/о н/о +9.0 +7.0 87 1019.3 1018.8
10 13.09 н/о н/о +9.6 +7.5 87 1019.8 1019.3
11 13.09 н/о н/о +12.2 +7.5 73 1020.0 1019.5
12 13.09 н/о н/о +11.5 +7.4 76 1020.7 1020.2 0.1
13 13.09 н/о н/о +11.3 +6.8 74 1021.4 1020.9 0.1
14 13.09 н/о н/о +10.1 +7.4 83 1021.8 1021.3
15 13.09 н/о н/о +12.4 +7.5 72 1021.4 1020.9
16 13.09 н/о н/о +10.1 +6.3 77 1021.7 1021.2 0.1
17 13.09 н/о н/о +8.6 +6.7 88 1022.7 1022.2
18 13.09 н/о н/о +8.2 +6.8 91 1023.0 1022.5 +13.0 0.3
19 13.09 н/о н/о +7.9 +6.5 91 1023.6 1023.1
20 13.09 н/о н/о +7.8 +6.6 92 1023.8 1023.3
21 13.09 н/о н/о +7.6 +6.4 92 1023.9 1023.4 0.1
22 13.09 н/о н/о +7.4 +6.2 92 1023.9 1023.4
23 13.09 н/о н/о +7.5 +6.3 92 1024.1 1023.6
00 14.09 н/о н/о +7.4 +6.2 92 1023.6 1023.1 0.2
01 14.09 н/о н/о +7.7 +6.3 91 1024.2 1023.7
02 14.09 н/о н/о +7.9 +6.4 90 1024.3 1023.8
03 14.09 н/о н/о +8.0 +6.3 89 1023.7 1023.2
04 14.09 н/о н/о +8.0 +6.3 89 1023.7 1023.2 0.1
05 14.09 н/о н/о +7.7 +6.3 91 1023.1 1022.6
06 14.09 н/о н/о +7.7 +6.5 92 1022.9 1022.4 +7.3 +8.4 0.3
07 14.09 н/о н/о +7.8 +6.6 92 1022.6 1022.1
08 14.09 н/о н/о +8.8 +7.6 92 1022.2 1021.7 0.1
09 14.09 н/о н/о +10.3 +8.1 86 1021.6 1021.1
10 14.09 н/о н/о +11.3 +6.9 74 1021.5 1021.0
11 14.09 н/о н/о +11.7 +6.6 71 1020.1 1019.6
12 14.09 н/о н/о +11.5 +6.2 70 1018.7 1018.2
13 14.09 н/о н/о +10.7 +6.8 77 1017.7 1017.2 0.1
14 14.09 н/о н/о +10.5 +7.2 80 1015.5 1015.0
15 14.09 н/о н/о +9.9 +7.8 87 1013.5 1013.0
16 14.09 н/о н/о +9.5 +8.1 91 1011.6 1011.1
17 14.09 н/о н/о +9.2 +7.8 91 1009.4 1008.9
18 14.09 н/о н/о +9.0 +7.8 92 1007.0 1006.5 +7.7 +12.3 0.1
19 14.09 н/о н/о +8.8 +7.6 92 1005.8 1005.3
20 14.09 н/о н/о +8.7 +7.6 93 1004.7 1004.2
21 14.09 н/о н/о +8.6 +7.5 93 1004.1 1003.6
22 14.09 н/о н/о +8.7 +7.6 93 1003.0 1002.5
23 14.09 н/о н/о +8.5 +7.4 93 1001.3 1000.8
00 15.09 н/о н/о +7.8 +6.6 92 1000.1 999.6 0.1
01 15.09 н/о н/о +9.9 +5.7 75 999.6 999.1
02 15.09 н/о н/о +9.2 +5.4 77 999.8 999.3
03 15.09 н/о н/о +8.0 +5.3 83 999.8 999.3
04 15.09 н/о н/о +6.8 +5.3 90 998.2 997.7
05 15.09 н/о н/о +7.2 +5.0 86 997.6 997.1 0.1
06 15.09 н/о н/о +7.2 +5.4 88 996.7 996.2 +6.6 +10.6 0.2
07 15.09 н/о н/о +7.4 +5.9 90 996.7 996.2
08 15.09 н/о н/о +7.6 +6.1 90 996.0 995.5
09 15.09 н/о н/о +8.0 +6.6 91 994.7 994.2
10 15.09 н/о н/о +8.4 +7.0 91 994.8 994.3
11 15.09 н/о н/о +8.8 +7.4 91 994.6 994.1
12 15.09 н/о н/о +10.3 +8.1 86 994.7 994.2 0.1
13 15.09 н/о н/о +10.8 +7.7 81 995.6 995.1
14 15.09 н/о н/о +9.8 +7.9 88 996.7 996.2
15 15.09 н/о н/о +9.7 +8.1 90 997.1 996.6
16 15.09 н/о н/о +11.0 +6.6 74 997.9 997.4
17 15.09 н/о н/о +9.7 +6.8 82 999.0 998.5 0.1
18 15.09 н/о н/о +9.6 +6.9 83 999.7 999.2 +7.2 +11.4
19 15.09 н/о н/о +12.3 +4.8 60 1001.0 1000.5 0.1
20 15.09 н/о н/о +12.1 +3.6 56 1002.6 1002.1 0.1
21 15.09 н/о н/о +11.7 +2.7 54 1004.4 1003.9 0.1
22 15.09 н/о н/о +11.1 +1.1 50 1005.4 1004.9 0.1
23 15.09 н/о н/о +11.0 +0.2 47 1006.0 1005.5 0.1
00 16.09 н/о н/о +10.4 +1.3 53 1006.7 1006.2 0.2
01 16.09 н/о н/о +9.7 +2.3 60 1007.0 1006.5 0.1
02 16.09 н/о н/о +9.8 +2.9 62 1007.4 1006.9 0.2
03 16.09 н/о н/о +9.6 +2.5 61 1008.0 1007.5 0.1
04 16.09 н/о н/о +9.6 +1.8 58 1008.1 1007.6 0.1
05 16.09 н/о н/о +9.2 +1.6 59 1008.5 1008.0 0.2

 

Местоположение метеостанции Лардал (Норвегия): широта 61.10 долгота 7.50 высота над уровнем моря 2 м.

В архиве по умолчанию представлена погода в Лардале за последнюю неделю. Архивные данные за месяц целиком и за предыдущие месяцы, начиная с января 2011 года, Вы можете получить, выбрав интересующий диапазон дат из раскрывающегося списка и нажав кнопку "Ввод!".


*Определитесь, кто Вы:
робот инопланетянин человек

Внимание! Время в таблицах - всемирное. Для получения местного времени необходимо прибавить поправку, которая равна 1 ч.

Смотрите также архив погоды в соседних городах и на ближайших метеорологических станциях:

Погода в Согндал аэропорту (Норвегия) (21 км)
Погода в Филефеле (Норвегия) (34 км)
Погода в Клеваватнете (Норвегия) (45 км)
Погода в Вангснесе (Норвегия) (46 км)
Погода в Мидтстове (Норвегия) (50 км)
Погода во Фьерлэнде (Норвегия) (53 км)
Погода в Мьолфелле (Норвегия) (54 км)
Погода на Финсеватнете (Норвегия) (56 км)
Погода в Сонгфельсхутте (Норвегия) (59 км)
Погода в Хемседале (Норвегия) (61 км)

Пояснения к столбцам:

Ветер - указаны скорость ветра в м/с - средняя за 10 мин, порывы в срок и между сроками (в фигурных скобках) и направление, откуда дует ветер: С - северный, СВ - северо-восточный, В - восточный, ЮВ - юго-восточный, Ю - южный, ЮЗ - юго-западный, З - западный, СЗ - северо-западный.
Видимость - горизонтальная дальность видимости в метрах или километрах. При видимости от 1 до 10 км при отсутствии осадков обычно наблюдается дымка, при ухудшении видимости до 1 км и менее - туман. В сухую погоду видимость может ухудшаться дымом, пылью или мглою.
Явления - указаны атмосферные явления, наблюдавшиеся в срок или в последний час перед сроком; фигурными скобками обозначены явления, наблюдавшиеся между сроками (за 1-3 часа до срока); квадратными скобками обозначены град или гололедные отложения с указанием их диаметра в мм.
Облачность - указаны через наклонную черту общая и нижняя облачность в баллах и высота нижней границы облаков в метрах; квадратными скобками обозначены формы облаков: Ci - перистые, Cs - перисто-слоистые, Cc - перисто-кучевые, Ac - высококучевые, As - высокослоистые, Sc - слоисто-кучевые, Ns - слоисто-дождевые, Cu - кучевые, Cb - кучево-дождевые. Подробнее классификацию облаков см. в Атласе облаков (PDF).
T - Температура воздуха - температура, измеренная на высоте 2 м над землей.
Td - Температура точки росы - температура, при понижении до которой содержащийся в воздухе водяной пар достигнет насыщения.
f - Относительная влажность воздуха - влажноcть воздуха, измеренная на высоте 2 м над землей.
Te - Эффективная температура - температура, которую ощущает одетый по сезону человек в тени. Характеристика душности погоды. При расчете учитывается влияние влажности воздуха и скорости ветра на теплоощущения человека.
Tes - Эффективная температура на солнце - температура, которую ощущает человек, с поправкой на солнечный нагрев. Характеристика знойности погоды. Зависит от высоты солнца над горизонтом, облачности и скорости ветра. Ночью, в пасмурную погоду, а также при ветре 12 м/с и более поправка равна нулю.
P - Атмосферное давление - приведенное к уровню моря атмосферное давление.
Po - Атмосферное давление - измеренное на уровне метеостанции атмосферное давление.
Tmin - Минимальная температура - минимум температуры воздуха на высоте 2 м над землей.
Tmax - Максимальная температура - максимум температуры воздуха на высоте 2 м над землей.
R - Количество осадков - Количество выпавших осадков за период времени, мм. При наведении курсора мыши на число - период времени, за который выпало указанное количество осадков.
R24 - Количество осадков - Количество выпавших осадков за 24 часа, мм.
S - Снежный покров - Высота снежного покрова, см. При наведении курсора мыши на число - состояние снежного покрова и степень покрытия местности в баллах.